Location: Unspecified
(52.4292°N, 19.3359°E)
Time: 20:09:14
(UTC+02:00)

A-11 Canister half - Pass Details

Date: 27 May 2024
Orbit: 1515 x 1685 km, 47.2° (Epoch: 12 June)

Event Time Altitude Azimuth Distance (km) Brightness Sun altitude
Rises 22:51:24 0° 167° (SSE) 4,821 - -12.4°
Reaches altitude 10° 22:58:58 10° 129° (SE) 3,788 - -12.9°
Exits shadow 22:59:20 10° 127° (SE) 3,775 10.5 -12.9°
Maximum altitude 23:00:00 10° 123° (ESE) 3,764 10.5 -12.9°
Drops below altitude 10° 23:01:03 10° 117° (ESE) 3,775 10.6 -13.0°
Sets 23:08:24 0° 79° (E) 4,717 11.4 -13.4°
